Regional Weather Roundup
Issued by NWS

Home | Current Version | Previous Version | Text Only | Print | Product List | Glossary On
Versions: 1 2 3 4 5 6 7 8 9 10 11 12 13 14 15 16 17 18 19 20 21 22 23 24 25 26 27 28 29 30 31 32 33 34 35 36 37 38 39 40 41 42 43 44 45 46 47 48 49 50
239
ASUS43 KTOP 051459
RWRKS

WEATHER ROUNDUP FOR KANSAS
NATIONAL WEATHER SERVICE GOODLAND KS
900 AM CST FRI FEB 05 2016

NOTE:  "FAIR" INDICATES FEW OR NO CLOUDS BELOW 12,000 FEET WITH NO
SIGNIFICANT WEATHER AND/OR OBSTRUCTIONS TO VISIBILITY.

KSZ001>006-013>018-027>032-041>047-051600-
NORTHWEST KANSAS

CITY           SKY/WX    TMP DP  RH WIND       PRES   REMARKS
GOODLAND       CLOUDY    28  25  88 W9        30.29R
HAYS           CLOUDY    25  12  58 NW6       30.34R
HILL CITY      CLOUDY    26  19  74 W3        30.33S
RUSSELL        CLOUDY    25  21  85 CALM      30.32F
$$

KSZ061>065-074>080-084>089-051600-
SOUTHWEST KANSAS

CITY           SKY/WX    TMP DP  RH WIND       PRES   REMARKS
DODGE CITY     CLOUDY    23  18  81 NE12      30.29R WCI  12
ELKHART          N/A     27  12  53 N15         N/A  WCI  15
GARDEN CITY    CLOUDY    24  17  74 N16       30.29R WCI  11
GREAT BEND     SUNNY     27  18  69 SE5       30.35S
LIBERAL        CLOUDY    30  16  55 NE12      30.22R WCI  21
$$

KSZ066>073-081>083-090>101-051600-
SOUTHEAST KANSAS

CITY           SKY/WX    TMP DP  RH WIND       PRES   REMARKS
CHANUTE        MOSUNNY   30  22  72 E3        30.41R
COFFEYVILLE    CLOUDY    29  24  82 CALM      30.43R
HUTCHINSON     CLOUDY    28  21  75 E5        30.37F
MEDICINE LODGE   N/A     31  22  69 NE7       30.33R
NEWTON         CLOUDY    28  18  64 NE5       30.39S
PARSONS        CLOUDY    31  21  66 CALM      30.42R
WICHITA INTL   PTSUNNY   31  21  66 N5        30.38R
WICHITA JABRA  PTSUNNY   28  23  81 NE5       30.37S
WINFIELD       CLOUDY    31  22  69 SE5       30.38F
$$

KSZ007>012-019>026-033>040-048>060-102>105-051600-
NORTHEAST KANSAS

CITY           SKY/WX    TMP DP  RH WIND       PRES   REMARKS
CONCORDIA      CLOUDY    25  19  78 SW5       30.37R
EMPORIA        CLOUDY    26  22  84 CALM      30.40R
LAWRENCE       CLOUDY    26  21  81 SE5       30.43R
MANHATTAN      CLOUDY    25  22  88 CALM      30.41R
OLATHE IND     CLOUDY    26  21  81 SE6       30.43R
OLATHE EXE     CLOUDY    26  20  77 SE6       30.42R
SALINA         CLOUDY    27  21  78 S3        30.40S
TOPEKA BILLARD CLOUDY    27  21  78 CALM      30.43R
TOPEKA FORBES  CLOUDY    27  21  78 CALM      30.41R
$$




USA.gov is the U.S. government's official web portal to all federal, state and local government web resources and services.